When you browse on this site, cookies collect data to enhance your experience and personalize the content and advertising you see.
Visit our Privacy Policy to learn more. By continuing to use the site, you agree to this use of cookies and data.
  • In Österreich
  • Länderverzeichnis
  • Für 7 Tage
  • Wassertemperatur
  • Wetterkarte
  • News
  • Widgets
  • user-avatar
    Anmelden

    Stündliche Wetter Bihać

    Heute, 21 Februar, Freitag

    Zeit Temperatur Niederschläge Wind Luftdruck Luftfeuchtigkeit
    00:00 +3°C° 0 mm 1 m/S 714 mmHg 65%
    01:00 +3°C° 0 mm 1 m/S 713 mmHg 62%
    02:00 +3°C° 0 mm 1 m/S 713 mmHg 62%
    03:00 +2°C° 0 mm 0 m/S 713 mmHg 61%
    04:00 +2°C° 0 mm 0 m/S 713 mmHg 61%
    05:00 +2°C° 0 mm 0 m/S 712 mmHg 61%
    06:00 +2°C° 0 mm 1 m/S 712 mmHg 62%
    07:00 +2°C° 0 mm 1 m/S 712 mmHg 63%
    14:00 +8°C° 0 mm 3 m/S 715 mmHg 50%
    15:00 +7°C° 0 mm 4 m/S 715 mmHg 54%
    16:00 +6°C° 0 mm 4 m/S 715 mmHg 57%
    17:00 +5°C° 0 mm 3 m/S 716 mmHg 60%
    18:00 +3°C° 0 mm 3 m/S 716 mmHg 63%
    19:00 +3°C° 0 mm 2 m/S 716 mmHg 66%
    20:00 +3°C° 0 mm 2 m/S 716 mmHg 62%
    21:00 +2°C° 0 mm 2 m/S 717 mmHg 58%
    22:00 +2°C° 0 mm 2 m/S 717 mmHg 54%
    23:00 +2°C° 0 mm 2 m/S 717 mmHg 55%

    Morgen, 22 Februar, Samstag

    Zeit Temperatur Niederschläge Wind Luftdruck Luftfeuchtigkeit
    00:00 +1°C° 0 mm 2 m/S 718 mmHg 56%
    01:00 +1°C° 0 mm 2 m/S 718 mmHg 56%
    02:00 +1°C° 0 mm 2 m/S 718 mmHg 58%
    03:00 +1°C° 0 mm 2 m/S 718 mmHg 59%
    04:00 +1°C° 0 mm 2 m/S 718 mmHg 60%
    05:00 +1°C° 0 mm 2 m/S 718 mmHg 61%
    06:00 +1°C° 0 mm 2 m/S 719 mmHg 63%
    07:00 +2°C° 0 mm 1 m/S 719 mmHg 64%
    08:00 +4°C° 0 mm 1 m/S 719 mmHg 57%
    09:00 +6°C° 0 mm 1 m/S 720 mmHg 51%
    10:00 +7°C° 0 mm 1 m/S 720 mmHg 45%
    11:00 +8°C° 0 mm 1 m/S 720 mmHg 44%
    12:00 +10°C° 0 mm 1 m/S 720 mmHg 43%
    13:00 +11°C° 0 mm 1 m/S 720 mmHg 42%
    14:00 +10°C° 0 mm 1 m/S 720 mmHg 46%
    15:00 +10°C° 0 mm 1 m/S 719 mmHg 51%
    16:00 +8°C° 0 mm 2 m/S 719 mmHg 55%
    17:00 +7°C° 0 mm 2 m/S 719 mmHg 61%
    18:00 +6°C° 0 mm 1 m/S 719 mmHg 67%
    19:00 +5°C° 0 mm 1 m/S 719 mmHg 72%
    20:00 +5°C° 0 mm 1 m/S 719 mmHg 71%
    21:00 +5°C° 0 mm 1 m/S 718 mmHg 70%
    22:00 +5°C° 0 mm 1 m/S 718 mmHg 70%
    23:00 +5°C° 0 mm 1 m/S 718 mmHg 70%

    übermorgen, 23 Februar, Sonntag

    Zeit Temperatur Niederschläge Wind Luftdruck Luftfeuchtigkeit
    00:00 +5°C° 0 mm 1 m/S 718 mmHg 70%
    01:00 +5°C° 0 mm 1 m/S 718 mmHg 71%
    02:00 +4°C° 0 mm 1 m/S 717 mmHg 72%
    03:00 +4°C° 0 mm 1 m/S 717 mmHg 74%
    04:00 +4°C° 0 mm 1 m/S 716 mmHg 76%
    05:00 +4°C° 0 mm 1 m/S 716 mmHg 76%
    06:00 +4°C° 0 mm 1 m/S 716 mmHg 76%
    07:00 +4°C° 0 mm 1 m/S 716 mmHg 76%
    08:00 +5°C° 0 mm 1 m/S 717 mmHg 72%
    09:00 +7°C° 0 mm 1 m/S 717 mmHg 68%
    10:00 +8°C° 0 mm 1 m/S 717 mmHg 64%
    11:00 +9°C° 0 mm 1 m/S 717 mmHg 64%
    12:00 +9°C° 0 mm 2 m/S 717 mmHg 64%
    13:00 +9°C° 0 mm 2 m/S 716 mmHg 64%
    14:00 +9°C° 0 mm 2 m/S 716 mmHg 66%
    15:00 +9°C° 0 mm 2 m/S 715 mmHg 68%
    16:00 +8°C° 0 mm 2 m/S 714 mmHg 70%
    17:00 +7°C° 0 mm 2 m/S 714 mmHg 75%
    18:00 +6°C° 0 mm 2 m/S 714 mmHg 80%
    19:00 +5°C° 0 mm 2 m/S 714 mmHg 85%
    20:00 +5°C° 0 mm 2 m/S 714 mmHg 86%
    21:00 +5°C° 0 mm 2 m/S 714 mmHg 86%
    22:00 +5°C° 0 mm 2 m/S 713 mmHg 87%
    23:00 +5°C° 0 mm 2 m/S 713 mmHg 89%

    24 Februar, Montag

    Zeit Temperatur Niederschläge Wind Luftdruck Luftfeuchtigkeit
    00:00 +5°C° 0 mm 2 m/S 713 mmHg 90%
    01:00 +5°C° 0 mm 2 m/S 713 mmHg 92%
    02:00 +5°C° 0 mm 2 m/S 713 mmHg 92%
    03:00 +5°C° 0 mm 2 m/S 712 mmHg 93%
    04:00 +5°C° 0 mm 2 m/S 712 mmHg 93%
    05:00 +5°C° 0 mm 2 m/S 712 mmHg 94%
    06:00 +6°C° 0 mm 1 m/S 712 mmHg 94%
    07:00 +6°C° 0 mm 1 m/S 712 mmHg 95%
    08:00 +7°C° 0 mm 1 m/S 713 mmHg 90%
    09:00 +9°C° 0 mm 1 m/S 714 mmHg 86%
    10:00 +10°C° 0 mm 1 m/S 715 mmHg 82%
    11:00 +9°C° 0 mm 2 m/S 715 mmHg 80%
    12:00 +9°C° 0 mm 2 m/S 715 mmHg 79%
    13:00 +9°C° 0 mm 3 m/S 716 mmHg 77%
    14:00 +9°C° 0 mm 2 m/S 715 mmHg 77%
    15:00 +9°C° 0 mm 2 m/S 715 mmHg 77%
    16:00 +8°C° 0 mm 2 m/S 715 mmHg 77%
    17:00 +7°C° 0 mm 2 m/S 715 mmHg 79%
    18:00 +6°C° 0 mm 2 m/S 715 mmHg 82%
    19:00 +5°C° 0 mm 2 m/S 715 mmHg 85%
    20:00 +5°C° 0 mm 2 m/S 714 mmHg 83%
    21:00 +4°C° 0 mm 2 m/S 714 mmHg 81%
    22:00 +5°C° 0 mm 1 m/S 714 mmHg 79%
    23:00 +5°C° 0 mm 1 m/S 714 mmHg 78%

    25 Februar, Dienstag

    Zeit Temperatur Niederschläge Wind Luftdruck Luftfeuchtigkeit
    00:00 +6°C° 0 mm 1 m/S 713 mmHg 77%
    01:00 +6°C° 0 mm 1 m/S 713 mmHg 76%
    02:00 +6°C° 0 mm 1 m/S 713 mmHg 79%
    03:00 +6°C° 0 mm 1 m/S 712 mmHg 81%
    04:00 +6°C° 0 mm 1 m/S 712 mmHg 83%
    05:00 +6°C° 0 mm 1 m/S 711 mmHg 85%
    06:00 +6°C° 0 mm 1 m/S 711 mmHg 86%
    07:00 +6°C° 0 mm 1 m/S 711 mmHg 87%
    08:00 +6°C° 0 mm 2 m/S 711 mmHg 83%
    09:00 +8°C° 0 mm 2 m/S 711 mmHg 79%
    10:00 +9°C° 0 mm 2 m/S 711 mmHg 75%
    11:00 +10°C° 0 mm 3 m/S 710 mmHg 74%
    12:00 +10°C° 0 mm 3 m/S 710 mmHg 73%
    13:00 +10°C° 0 mm 3 m/S 709 mmHg 72%
    14:00 +10°C° 0 mm 3 m/S 709 mmHg 76%
    15:00 +9°C° 0 mm 3 m/S 708 mmHg 80%
    16:00 +8°C° 0 mm 3 m/S 707 mmHg 85%
    17:00 +8°C° 0.1 mm 3 m/S 707 mmHg 88%
    18:00 +8°C° 0.1 mm 3 m/S 707 mmHg 92%
    19:00 +8°C° 0.1 mm 3 m/S 706 mmHg 95%
    20:00 +8°C° 0.3 mm 3 m/S 706 mmHg 95%
    21:00 +8°C° 0.3 mm 3 m/S 706 mmHg 94%
    22:00 +7°C° 0.3 mm 3 m/S 706 mmHg 94%
    23:00 +7°C° 0.8 mm 3 m/S 705 mmHg 94%

    26 Februar, Mittwoch

    Zeit Temperatur Niederschläge Wind Luftdruck Luftfeuchtigkeit
    00:00 +7°C° 0.8 mm 3 m/S 705 mmHg 95%
    01:00 +7°C° 0.8 mm 3 m/S 704 mmHg 95%
    02:00 +7°C° 0.5 mm 3 m/S 704 mmHg 95%
    03:00 +7°C° 0.5 mm 3 m/S 704 mmHg 95%
    04:00 +7°C° 0.5 mm 3 m/S 703 mmHg 95%
    05:00 +7°C° 0.3 mm 3 m/S 703 mmHg 95%
    06:00 +7°C° 0.3 mm 3 m/S 703 mmHg 95%
    07:00 +7°C° 0.3 mm 2 m/S 703 mmHg 95%
    08:00 +8°C° 0.2 mm 2 m/S 703 mmHg 93%
    09:00 +8°C° 0.2 mm 3 m/S 703 mmHg 91%
    10:00 +8°C° 0.2 mm 3 m/S 703 mmHg 88%
    11:00 +9°C° 0.2 mm 3 m/S 703 mmHg 85%
    12:00 +9°C° 0.2 mm 3 m/S 703 mmHg 82%
    13:00 +10°C° 0.2 mm 3 m/S 703 mmHg 79%
    14:00 +10°C° 0.2 mm 3 m/S 702 mmHg 79%
    15:00 +10°C° 0.2 mm 3 m/S 702 mmHg 78%
    16:00 +10°C° 0.2 mm 2 m/S 702 mmHg 78%
    17:00 +9°C° 0.2 mm 2 m/S 702 mmHg 83%
    18:00 +8°C° 0.2 mm 2 m/S 702 mmHg 88%
    19:00 +6°C° 0.2 mm 2 m/S 702 mmHg 93%
    20:00 +6°C° 0.9 mm 2 m/S 702 mmHg 93%
    21:00 +6°C° 0.9 mm 2 m/S 702 mmHg 94%
    22:00 +7°C° 0.9 mm 1 m/S 702 mmHg 94%
    23:00 +5°C° 0.9 mm 2 m/S 703 mmHg 94%
    Mehr zeigen